AIC538 VOMM-VIDP

Flight info

Callsign AIC538
Flight time 2h 24m
Altitude 38000
Route KAMGU2B KAMGU Q24 BAVOX BAVOX7A
Aircraft A339/H-SADE1E2E3GHIJ3J5M1P2RWXY/LB2D1

Departure

Time 2026-04-27 01:25
Airport Chennai International Airport (VOMM)

Arrival

Time 2026-04-27 03:49
Airport Indira Gandhi International Airport (VIDP)
Time Latitude Longitude Altitude Speed Heading
2026-04-27 01:02 12.98513 80.16742 63 ft 0 kts 160°
2026-04-27 01:10 12.98514 80.16741 63 ft 1 kts 160°
2026-04-27 01:10 12.98528 80.16736 63 ft 2 kts 160°
2026-04-27 01:11 12.98542 80.16730 62 ft 2 kts 160°
2026-04-27 01:11 12.98556 80.16725 62 ft 1 kts 160°
2026-04-27 01:11 12.98565 80.16722 61 ft 2 kts 146°
2026-04-27 01:11 12.98573 80.16710 61 ft 2 kts 93°
2026-04-27 01:12 12.98572 80.16699 61 ft 1 kts 67°
2026-04-27 01:12 12.98570 80.16695 61 ft 0 kts 69°
2026-04-27 01:14 12.98572 80.16698 61 ft 0 kts 69°
2026-04-27 01:15 12.98574 80.16705 61 ft 1 kts 71°
2026-04-27 01:15 12.98579 80.16721 61 ft 3 kts 71°
2026-04-27 01:15 12.98588 80.16746 62 ft 4 kts 65°
2026-04-27 01:15 12.98612 80.16763 61 ft 5 kts
2026-04-27 01:16 12.98666 80.16750 58 ft 11 kts 342°
2026-04-27 01:16 12.98745 80.16743 54 ft 10 kts 32°
2026-04-27 01:16 12.98770 80.16792 55 ft 6 kts 65°
2026-04-27 01:16 12.98791 80.16838 55 ft 7 kts 66°
2026-04-27 01:17 12.98816 80.16899 55 ft 10 kts 69°
2026-04-27 01:17 12.98845 80.16975 54 ft 11 kts 69°
2026-04-27 01:17 12.98876 80.17057 54 ft 12 kts 69°
2026-04-27 01:17 12.98884 80.17078 55 ft 12 kts 69°
2026-04-27 01:18 12.98914 80.17155 55 ft 13 kts 69°
2026-04-27 01:18 12.98951 80.17240 55 ft 13 kts 62°
2026-04-27 01:18 12.98992 80.17328 55 ft 13 kts 69°
2026-04-27 01:19 12.99029 80.17423 54 ft 15 kts 69°
2026-04-27 01:19 12.99068 80.17526 54 ft 15 kts 69°
2026-04-27 01:19 12.99107 80.17631 54 ft 15 kts 69°
2026-04-27 01:19 12.99152 80.17693 53 ft 9 kts 18°
2026-04-27 01:20 12.99199 80.17722 53 ft 7 kts 51°
2026-04-27 01:20 12.99222 80.17767 54 ft 6 kts 67°
2026-04-27 01:20 12.99240 80.17812 56 ft 6 kts 67°
2026-04-27 01:20 12.99260 80.17862 57 ft 7 kts 70°
2026-04-27 01:21 12.99284 80.17928 58 ft 11 kts 70°
2026-04-27 01:21 12.99314 80.18007 59 ft 11 kts 69°
2026-04-27 01:21 12.99346 80.18088 59 ft 12 kts 66°
2026-04-27 01:21 12.99361 80.18177 59 ft 12 kts 91°
2026-04-27 01:22 12.99381 80.18267 57 ft 13 kts 58°
2026-04-27 01:22 12.99448 80.18339 58 ft 13 kts 43°
2026-04-27 01:22 12.99517 80.18403 59 ft 12 kts 43°
2026-04-27 01:22 12.99563 80.18433 59 ft 4 kts 358°
2026-04-27 01:23 12.99580 80.18409 59 ft 5 kts 276°
2026-04-27 01:23 12.99572 80.18374 59 ft 4 kts 250°
2026-04-27 01:23 12.99560 80.18340 59 ft 6 kts 250°
2026-04-27 01:23 12.99518 80.18225 57 ft 42 kts 249°
2026-04-27 01:24 12.99331 80.17725 52 ft 105 kts 248°
2026-04-27 01:24 12.99003 80.16856 53 ft 155 kts 249°
2026-04-27 01:24 12.98564 80.15696 210 ft 184 kts 249°
2026-04-27 01:24 12.98123 80.14446 594 ft 197 kts 257°
2026-04-27 01:25 12.98108 80.12984 1020 ft 215 kts 277°
2026-04-27 01:25 12.98460 80.11443 1542 ft 229 kts 287°
2026-04-27 01:25 12.99196 80.09978 2091 ft 241 kts 304°
2026-04-27 01:25 13.00442 80.08785 2624 ft 251 kts 332°
2026-04-27 01:26 13.02152 80.08352 3146 ft 259 kts
2026-04-27 01:26 13.03890 80.08839 3721 ft 261 kts 33°
2026-04-27 01:26 13.05165 80.10107 4355 ft 257 kts 62°
2026-04-27 01:26 13.05700 80.11810 5068 ft 251 kts 82°
2026-04-27 01:27 13.06343 80.13449 5616 ft 256 kts 50°
2026-04-27 01:27 13.07843 80.14444 6131 ft 266 kts 16°
2026-04-27 01:27 13.09733 80.14468 6627 ft 278 kts 354°
2026-04-27 01:27 13.11655 80.14262 7238 ft 278 kts
2026-04-27 01:28 13.13597 80.14276 7895 ft 277 kts
2026-04-27 01:28 13.15514 80.14436 8548 ft 277 kts
2026-04-27 01:28 13.17413 80.14667 9216 ft 277 kts 10°
2026-04-27 01:28 13.19343 80.14918 9875 ft 279 kts
2026-04-27 01:29 13.21291 80.15049 10303 ft 289 kts
2026-04-27 01:29 13.23397 80.15007 10571 ft 306 kts 360°
2026-04-27 01:29 13.25585 80.14882 10845 ft 321 kts 359°
2026-04-27 01:29 13.27851 80.14739 11326 ft 329 kts 359°
2026-04-27 01:30 13.30130 80.14542 11921 ft 333 kts 354°
2026-04-27 01:30 13.32426 80.14031 12517 ft 338 kts 346°
2026-04-27 01:30 13.34651 80.13203 13104 ft 342 kts 340°
2026-04-27 01:30 13.36858 80.12259 13673 ft 346 kts 339°
2026-04-27 01:31 13.39077 80.11289 14224 ft 350 kts 339°
2026-04-27 01:31 13.41355 80.10294 14773 ft 354 kts 339°
2026-04-27 01:31 13.43638 80.09296 15315 ft 357 kts 339°
2026-04-27 01:31 13.45920 80.08301 15856 ft 361 kts 339°
2026-04-27 01:32 13.48249 80.07287 16388 ft 364 kts 339°
2026-04-27 01:32 13.50608 80.06261 16912 ft 368 kts 339°
2026-04-27 01:32 13.52976 80.05231 17423 ft 371 kts 339°
2026-04-27 01:32 13.55342 80.04202 17944 ft 374 kts 339°
2026-04-27 01:33 13.57755 80.03155 18480 ft 377 kts 338°
2026-04-27 01:33 13.60190 80.02098 19018 ft 379 kts 338°
2026-04-27 01:33 13.62630 80.01038 19546 ft 382 kts 338°
2026-04-27 01:33 13.65070 79.99979 20048 ft 384 kts 338°
2026-04-27 01:34 13.67563 79.98894 20548 ft 387 kts 338°
2026-04-27 01:34 13.70058 79.97809 21042 ft 389 kts 338°
2026-04-27 01:34 13.72548 79.96727 21509 ft 392 kts 338°
2026-04-27 01:34 13.75081 79.95625 21973 ft 395 kts 338°
2026-04-27 01:35 13.77635 79.94514 22426 ft 397 kts 337°
2026-04-27 01:35 13.80185 79.93404 22894 ft 400 kts 337°
2026-04-27 01:35 13.82770 79.92278 23349 ft 402 kts 337°
2026-04-27 01:35 13.85349 79.91157 23817 ft 404 kts 337°
2026-04-27 01:36 13.87950 79.90025 24249 ft 407 kts 336°
2026-04-27 01:36 13.90550 79.88892 24672 ft 409 kts 336°
2026-04-27 01:36 13.93212 79.87734 25115 ft 411 kts 336°
2026-04-27 01:36 13.95851 79.86582 25540 ft 413 kts 336°
2026-04-27 01:37 13.98521 79.85417 25944 ft 416 kts 336°
2026-04-27 01:37 14.01166 79.84264 26340 ft 418 kts 336°
2026-04-27 01:37 14.03865 79.83086 26726 ft 421 kts 336°
2026-04-27 01:37 14.06595 79.81894 27121 ft 423 kts 335°
2026-04-27 01:38 14.09307 79.80711 27509 ft 425 kts 335°
2026-04-27 01:38 14.12057 79.79511 27892 ft 427 kts 335°
2026-04-27 01:38 14.14816 79.78307 28270 ft 429 kts 335°
2026-04-27 01:38 14.17576 79.77101 28634 ft 431 kts 335°
2026-04-27 01:39 14.20329 79.75899 28989 ft 434 kts 335°
2026-04-27 01:39 14.23112 79.74683 29324 ft 437 kts 334°
2026-04-27 01:39 14.25934 79.73450 29660 ft 439 kts 334°
2026-04-27 01:39 14.28763 79.72213 30004 ft 441 kts 334°
2026-04-27 01:40 14.31618 79.70963 30347 ft 444 kts 334°
2026-04-27 01:40 14.34457 79.69722 30689 ft 446 kts 334°
2026-04-27 01:40 14.37354 79.68453 31021 ft 448 kts 334°
2026-04-27 01:40 14.40235 79.67191 31347 ft 450 kts 333°
2026-04-27 01:41 14.43127 79.65924 31676 ft 452 kts 333°
2026-04-27 01:41 14.46015 79.64660 32001 ft 454 kts 333°
2026-04-27 01:41 14.48955 79.63371 32310 ft 456 kts 333°
2026-04-27 01:41 14.51899 79.62080 32604 ft 459 kts 333°
2026-04-27 01:42 14.54847 79.60788 32903 ft 461 kts 333°
2026-04-27 01:42 14.57790 79.59497 33271 ft 462 kts 333°
2026-04-27 01:42 14.60769 79.58191 33729 ft 460 kts 333°
2026-04-27 01:42 14.63691 79.56909 34162 ft 459 kts 332°
2026-04-27 01:43 14.66649 79.55611 34576 ft 459 kts 332°
2026-04-27 01:43 14.69585 79.54321 34946 ft 459 kts 332°
2026-04-27 01:43 14.72539 79.53022 35305 ft 459 kts 332°
2026-04-27 01:43 14.75460 79.51737 35666 ft 458 kts 332°
2026-04-27 01:44 14.78404 79.50442 36006 ft 458 kts 332°
2026-04-27 01:44 14.81320 79.49158 36299 ft 459 kts 332°
2026-04-27 01:44 14.84289 79.47850 36534 ft 460 kts 332°
2026-04-27 01:44 14.87262 79.46539 36755 ft 462 kts 332°
2026-04-27 01:45 14.90216 79.45238 36986 ft 464 kts 332°
2026-04-27 01:45 14.93190 79.43932 37242 ft 464 kts 332°
2026-04-27 01:45 14.96192 79.42734 37455 ft 468 kts 335°
2026-04-27 01:45 14.99319 79.41682 37678 ft 472 kts 338°
2026-04-27 01:46 15.02514 79.40803 37806 ft 476 kts 341°
2026-04-27 01:46 15.09006 79.39229 37819 ft 478 kts 342°
2026-04-27 01:47 15.15491 79.37676 37825 ft 479 kts 341°
2026-04-27 01:47 15.22000 79.36108 37834 ft 479 kts 341°
2026-04-27 01:48 15.28501 79.34535 37844 ft 479 kts 341°
2026-04-27 01:48 15.35015 79.32958 37841 ft 479 kts 341°
2026-04-27 01:49 15.41499 79.31385 37843 ft 478 kts 341°
2026-04-27 01:49 15.48006 79.29807 37834 ft 477 kts 341°
2026-04-27 01:50 15.54492 79.28230 37836 ft 478 kts 341°
2026-04-27 01:50 15.60967 79.26656 37834 ft 477 kts 340°
2026-04-27 01:51 15.67455 79.25077 37838 ft 478 kts 341°
2026-04-27 01:51 15.73928 79.23501 37837 ft 478 kts 341°
2026-04-27 01:52 15.80409 79.21924 37840 ft 477 kts 340°
2026-04-27 01:52 15.86895 79.20342 37841 ft 477 kts 340°
2026-04-27 01:53 15.93360 79.18761 37859 ft 477 kts 340°
2026-04-27 01:53 15.99836 79.17184 37874 ft 477 kts 340°
2026-04-27 01:54 16.06364 79.15617 37884 ft 477 kts 340°
2026-04-27 01:54 16.12811 79.14066 37885 ft 478 kts 340°
2026-04-27 01:55 16.19330 79.12494 37887 ft 479 kts 340°
2026-04-27 01:55 16.25826 79.10925 37882 ft 478 kts 340°
2026-04-27 01:56 16.35577 79.08566 37872 ft 478 kts 340°
2026-04-27 01:56 16.42049 79.06998 37868 ft 479 kts 340°
2026-04-27 01:57 16.48548 79.05423 37867 ft 478 kts 340°
2026-04-27 01:57 16.55042 79.03851 37859 ft 478 kts 340°
2026-04-27 01:58 16.61546 79.02272 37853 ft 479 kts 340°
2026-04-27 01:58 16.68066 79.00691 37848 ft 480 kts 340°
2026-04-27 01:59 16.74567 78.99111 37852 ft 480 kts 340°
2026-04-27 01:59 16.81123 78.97518 37850 ft 480 kts 340°
2026-04-27 02:00 16.87636 78.95933 37849 ft 479 kts 340°
2026-04-27 02:00 16.94144 78.94348 37856 ft 479 kts 340°
2026-04-27 02:01 17.00660 78.92759 37860 ft 479 kts 340°
2026-04-27 02:01 17.07138 78.91181 37866 ft 479 kts 340°
2026-04-27 02:02 17.13638 78.89597 37868 ft 478 kts 340°
2026-04-27 02:02 17.20177 78.87997 37871 ft 479 kts 340°
2026-04-27 02:03 17.26684 78.86404 37871 ft 480 kts 340°
2026-04-27 02:03 17.33182 78.84817 37874 ft 479 kts 340°
2026-04-27 02:04 17.39693 78.83219 37878 ft 480 kts 340°
2026-04-27 02:04 17.46221 78.81619 37880 ft 480 kts 340°
2026-04-27 02:05 17.52716 78.80045 37885 ft 479 kts 340°
2026-04-27 02:05 17.59223 78.78474 37889 ft 479 kts 340°
2026-04-27 02:06 17.65724 78.76898 37895 ft 478 kts 340°
2026-04-27 02:06 17.72238 78.75317 37900 ft 478 kts 340°
2026-04-27 02:07 17.78734 78.73737 37904 ft 478 kts 340°
2026-04-27 02:07 17.85233 78.72155 37905 ft 480 kts 339°
2026-04-27 02:08 17.91733 78.70573 37902 ft 480 kts 339°
2026-04-27 02:08 17.98255 78.68983 37895 ft 479 kts 339°
2026-04-27 02:09 18.04755 78.67394 37888 ft 479 kts 339°
2026-04-27 02:09 18.11314 78.65793 37881 ft 479 kts 340°
2026-04-27 02:10 18.17813 78.64196 37883 ft 478 kts 339°
2026-04-27 02:10 18.24271 78.62600 37882 ft 478 kts 339°
2026-04-27 02:11 18.30762 78.60992 37874 ft 476 kts 339°
2026-04-27 02:11 18.37232 78.59386 37880 ft 477 kts 339°
2026-04-27 02:12 18.43692 78.57783 37884 ft 477 kts 339°
2026-04-27 02:12 18.50149 78.56178 37886 ft 476 kts 339°
2026-04-27 02:13 18.56636 78.54565 37879 ft 476 kts 339°
2026-04-27 02:13 18.63074 78.52965 37876 ft 475 kts 339°
2026-04-27 02:14 18.69511 78.51360 37860 ft 475 kts 339°
2026-04-27 02:14 18.75985 78.49746 37848 ft 476 kts 339°
2026-04-27 02:15 18.82417 78.48141 37845 ft 474 kts 339°
2026-04-27 02:15 18.88859 78.46534 37839 ft 475 kts 339°
2026-04-27 02:16 18.95275 78.44932 37835 ft 475 kts 339°
2026-04-27 02:16 19.01757 78.43308 37829 ft 475 kts 339°
2026-04-27 02:17 19.08186 78.41698 37829 ft 474 kts 339°
2026-04-27 02:17 19.14601 78.40089 37829 ft 472 kts 339°
2026-04-27 02:18 19.20971 78.38464 37837 ft 471 kts 338°
2026-04-27 02:18 19.27351 78.36778 37839 ft 472 kts 338°
2026-04-27 02:19 19.33723 78.35092 37841 ft 471 kts 338°
2026-04-27 02:19 19.40068 78.33417 37838 ft 470 kts 338°
2026-04-27 02:20 19.46433 78.31732 37834 ft 470 kts 338°
2026-04-27 02:20 19.52761 78.30057 37832 ft 470 kts 338°
2026-04-27 02:21 19.59152 78.28370 37826 ft 470 kts 338°
2026-04-27 02:21 19.65497 78.26714 37820 ft 469 kts 338°
2026-04-27 02:22 19.71829 78.25060 37820 ft 467 kts 338°
2026-04-27 02:22 19.78125 78.23408 37817 ft 467 kts 338°
2026-04-27 02:23 19.84502 78.21735 37808 ft 467 kts 338°
2026-04-27 02:23 19.90796 78.20081 37803 ft 467 kts 338°
2026-04-27 02:24 19.97107 78.18422 37800 ft 467 kts 338°
2026-04-27 02:24 20.03423 78.16758 37797 ft 466 kts 338°
2026-04-27 02:25 20.09743 78.15094 37799 ft 465 kts 338°
2026-04-27 02:25 20.16017 78.13440 37801 ft 465 kts 338°
2026-04-27 02:26 20.22327 78.11773 37809 ft 465 kts 338°
2026-04-27 02:26 20.28638 78.10107 37811 ft 464 kts 338°
2026-04-27 02:27 20.34921 78.08444 37807 ft 465 kts 338°
2026-04-27 02:27 20.41200 78.06782 37813 ft 465 kts 338°
2026-04-27 02:28 20.47468 78.05121 37816 ft 465 kts 338°
2026-04-27 02:28 20.53774 78.03446 37820 ft 465 kts 338°
2026-04-27 02:29 20.60098 78.01817 37820 ft 466 kts 339°
2026-04-27 02:29 20.66407 78.00288 37823 ft 466 kts 339°
2026-04-27 02:30 20.72734 77.98749 37819 ft 466 kts 339°
2026-04-27 02:30 20.79060 77.97203 37817 ft 465 kts 339°
2026-04-27 02:31 20.85375 77.95654 37819 ft 464 kts 339°
2026-04-27 02:31 20.91715 77.94096 37816 ft 465 kts 339°
2026-04-27 02:32 20.98021 77.92545 37824 ft 465 kts 339°
2026-04-27 02:32 21.04334 77.90990 37814 ft 465 kts 339°
2026-04-27 02:33 21.10636 77.89436 37808 ft 466 kts 339°
2026-04-27 02:33 21.16965 77.87875 37812 ft 465 kts 339°
2026-04-27 02:34 21.23273 77.86316 37817 ft 464 kts 339°
2026-04-27 02:34 21.29568 77.84762 37826 ft 465 kts 339°
2026-04-27 02:35 21.35873 77.83202 37849 ft 463 kts 339°
2026-04-27 02:35 21.42175 77.81642 37874 ft 464 kts 339°
2026-04-27 02:36 21.48482 77.80077 37903 ft 465 kts 339°
2026-04-27 02:36 21.54795 77.78512 37922 ft 465 kts 339°
2026-04-27 02:37 21.61112 77.76944 37922 ft 465 kts 339°
2026-04-27 02:37 21.67452 77.75369 37924 ft 465 kts 339°
2026-04-27 02:38 21.73747 77.73802 37921 ft 464 kts 339°
2026-04-27 02:38 21.80072 77.72227 37916 ft 465 kts 339°
2026-04-27 02:39 21.86385 77.70654 37913 ft 464 kts 338°
2026-04-27 02:39 21.92682 77.69080 37909 ft 464 kts 339°
2026-04-27 02:40 21.98951 77.67514 37905 ft 464 kts 338°
2026-04-27 02:40 22.05260 77.65935 37899 ft 464 kts 338°
2026-04-27 02:41 22.11574 77.64313 37889 ft 464 kts 338°
2026-04-27 02:41 22.17825 77.62685 37877 ft 465 kts 338°
2026-04-27 02:42 22.24149 77.61039 37864 ft 464 kts 339°
2026-04-27 02:42 22.30399 77.59408 37854 ft 464 kts 339°
2026-04-27 02:43 22.36689 77.57769 37849 ft 464 kts 339°
2026-04-27 02:43 22.42986 77.56126 37840 ft 465 kts 339°
2026-04-27 02:44 22.49281 77.54479 37833 ft 466 kts 339°
2026-04-27 02:44 22.55615 77.52824 37831 ft 466 kts 339°
2026-04-27 02:45 22.61908 77.51178 37836 ft 466 kts 339°
2026-04-27 02:45 22.68258 77.49513 37848 ft 466 kts 340°
2026-04-27 02:46 22.74573 77.47858 37845 ft 466 kts 340°
2026-04-27 02:46 22.80870 77.46205 37856 ft 468 kts 340°
2026-04-27 02:47 22.87225 77.44536 37858 ft 467 kts 340°
2026-04-27 02:47 22.93540 77.42874 37864 ft 469 kts 340°
2026-04-27 02:48 22.99932 77.41191 37867 ft 469 kts 340°
2026-04-27 02:48 23.06271 77.39520 37872 ft 469 kts 340°
2026-04-27 02:49 23.12589 77.37851 37869 ft 468 kts 340°
2026-04-27 02:49 23.18943 77.36171 37872 ft 468 kts 340°
2026-04-27 02:50 23.25294 77.34570 37868 ft 470 kts 343°
2026-04-27 02:50 23.31793 77.33576 37867 ft 475 kts 349°
2026-04-27 02:51 23.38471 77.33189 37867 ft 477 kts 352°
2026-04-27 02:51 23.45067 77.32900 37867 ft 476 kts 352°
2026-04-27 02:52 23.51734 77.32595 37866 ft 477 kts 352°
2026-04-27 02:52 23.58353 77.32291 37862 ft 477 kts 352°
2026-04-27 02:53 23.65018 77.31982 37855 ft 476 kts 352°
2026-04-27 02:53 23.71642 77.31673 37849 ft 476 kts 352°
2026-04-27 02:54 23.78266 77.31360 37846 ft 476 kts 352°
2026-04-27 02:54 23.84895 77.31050 37848 ft 476 kts 353°
2026-04-27 02:55 23.91543 77.30737 37848 ft 476 kts 352°
2026-04-27 02:55 23.98159 77.30428 37851 ft 475 kts 353°
2026-04-27 02:56 24.04758 77.30118 37856 ft 474 kts 353°
2026-04-27 02:56 24.11382 77.29805 37864 ft 475 kts 353°
2026-04-27 02:57 24.17959 77.29495 37865 ft 476 kts 353°
2026-04-27 02:57 24.24609 77.29180 37866 ft 476 kts 353°
2026-04-27 02:58 24.31251 77.28869 37868 ft 476 kts 353°
2026-04-27 02:58 24.37871 77.28556 37860 ft 475 kts 353°
2026-04-27 02:59 24.44470 77.28243 37854 ft 474 kts 353°
2026-04-27 02:59 24.51091 77.27928 37844 ft 474 kts 353°
2026-04-27 03:00 24.57685 77.27613 37840 ft 475 kts 353°
2026-04-27 03:00 24.64308 77.27297 37838 ft 475 kts 353°
2026-04-27 03:01 24.70932 77.26981 37838 ft 475 kts 353°
2026-04-27 03:01 24.77503 77.26704 37835 ft 474 kts 353°
2026-04-27 03:02 24.84125 77.26427 37834 ft 473 kts 354°
2026-04-27 03:02 24.90717 77.26145 37834 ft 473 kts 354°
2026-04-27 03:03 25.00600 77.25723 37841 ft 474 kts 354°
2026-04-27 03:04 25.07202 77.25484 37838 ft 474 kts 354°
2026-04-27 03:04 25.13781 77.25252 37844 ft 473 kts 354°
2026-04-27 03:05 25.20386 77.25015 37837 ft 473 kts 354°
2026-04-27 03:05 25.26995 77.24777 37833 ft 473 kts 354°
2026-04-27 03:06 25.33560 77.24538 37827 ft 473 kts 354°
2026-04-27 03:06 25.40159 77.24297 37829 ft 472 kts 354°
2026-04-27 03:07 25.46722 77.24058 37817 ft 470 kts 354°
2026-04-27 03:07 25.53219 77.23821 37817 ft 469 kts 354°
2026-04-27 03:08 25.59755 77.23583 37801 ft 469 kts 354°
2026-04-27 03:08 25.66328 77.23343 37791 ft 468 kts 354°
2026-04-27 03:09 25.72851 77.23106 37794 ft 468 kts 354°
2026-04-27 03:09 25.79342 77.22867 37796 ft 468 kts 354°
2026-04-27 03:10 25.85843 77.22626 37789 ft 468 kts 354°
2026-04-27 03:10 25.92359 77.22386 37797 ft 467 kts 354°
2026-04-27 03:11 25.98883 77.22147 37792 ft 467 kts 354°
2026-04-27 03:11 26.05393 77.21905 37792 ft 466 kts 354°
2026-04-27 03:12 26.11889 77.21664 37788 ft 466 kts 354°
2026-04-27 03:12 26.18361 77.21389 37777 ft 466 kts 353°
2026-04-27 03:13 26.24855 77.21051 37756 ft 465 kts 353°
2026-04-27 03:13 26.31307 77.20715 37738 ft 465 kts 353°
2026-04-27 03:14 26.37774 77.20380 37738 ft 465 kts 353°
2026-04-27 03:14 26.44234 77.20048 37742 ft 465 kts 353°
2026-04-27 03:15 26.50742 77.19712 37746 ft 465 kts 353°
2026-04-27 03:15 26.57199 77.19379 37746 ft 465 kts 353°
2026-04-27 03:16 26.63697 77.19044 37749 ft 465 kts 353°
2026-04-27 03:16 26.70166 77.18710 37754 ft 465 kts 353°
2026-04-27 03:17 26.76663 77.18374 37757 ft 465 kts 353°
2026-04-27 03:17 26.83125 77.18040 37744 ft 464 kts 353°
2026-04-27 03:17 26.86370 77.17873 37569 ft 460 kts 353°
2026-04-27 03:18 26.89542 77.17709 37135 ft 458 kts 353°
2026-04-27 03:18 26.92737 77.17543 36655 ft 455 kts 353°
2026-04-27 03:18 26.95865 77.17381 36134 ft 450 kts 354°
2026-04-27 03:18 26.98994 77.17217 35442 ft 448 kts 354°
2026-04-27 03:19 27.02089 77.17055 34663 ft 448 kts 354°
2026-04-27 03:19 27.05216 77.16890 33818 ft 448 kts 354°
2026-04-27 03:19 27.08340 77.16726 32947 ft 449 kts 354°
2026-04-27 03:19 27.11438 77.16567 32122 ft 448 kts 354°
2026-04-27 03:20 27.14519 77.16409 31511 ft 443 kts 354°
2026-04-27 03:20 27.17588 77.16250 30896 ft 438 kts 354°
2026-04-27 03:20 27.20600 77.16094 30248 ft 434 kts 354°
2026-04-27 03:20 27.23620 77.15938 29584 ft 430 kts 354°
2026-04-27 03:21 27.26570 77.15784 28927 ft 427 kts 354°
2026-04-27 03:21 27.29525 77.15630 28283 ft 424 kts 354°
2026-04-27 03:21 27.32454 77.15474 27643 ft 420 kts 354°
2026-04-27 03:21 27.35377 77.15320 26994 ft 417 kts 354°
2026-04-27 03:22 27.38285 77.15166 26338 ft 412 kts 354°
2026-04-27 03:22 27.41123 77.15015 25366 ft 408 kts 354°
2026-04-27 03:22 27.43908 77.14871 24491 ft 401 kts 354°
2026-04-27 03:22 27.46651 77.14728 24020 ft 385 kts 354°
2026-04-27 03:23 27.49263 77.14595 23685 ft 366 kts 354°
2026-04-27 03:23 27.51756 77.14467 23222 ft 354 kts 354°
2026-04-27 03:23 27.54198 77.14338 22539 ft 349 kts 353°
2026-04-27 03:23 27.56607 77.14210 21828 ft 345 kts 353°
2026-04-27 03:24 27.58982 77.14082 21125 ft 341 kts 353°
2026-04-27 03:24 27.61348 77.13957 20407 ft 338 kts 353°
2026-04-27 03:24 27.63698 77.13833 19379 ft 345 kts 353°
2026-04-27 03:24 27.66112 77.13706 18203 ft 353 kts 354°
2026-04-27 03:25 27.68605 77.13586 17100 ft 357 kts 354°
2026-04-27 03:25 27.71068 77.13474 16268 ft 353 kts 354°
2026-04-27 03:25 27.73492 77.13363 15805 ft 346 kts 354°
2026-04-27 03:25 27.75841 77.13256 15580 ft 332 kts 354°
2026-04-27 03:26 27.78106 77.13152 15364 ft 320 kts 354°
2026-04-27 03:26 27.80322 77.13049 15150 ft 308 kts 354°
2026-04-27 03:26 27.82419 77.12949 14821 ft 302 kts 353°
2026-04-27 03:26 27.84515 77.12848 14406 ft 299 kts 353°
2026-04-27 03:27 27.86601 77.12747 13985 ft 296 kts 353°
2026-04-27 03:27 27.88653 77.12649 13569 ft 293 kts 353°
2026-04-27 03:27 27.90689 77.12551 13162 ft 290 kts 353°
2026-04-27 03:27 27.92690 77.12456 12759 ft 287 kts 353°
2026-04-27 03:28 27.94689 77.12360 12343 ft 285 kts 353°
2026-04-27 03:28 27.96656 77.12266 11916 ft 283 kts 353°
2026-04-27 03:28 27.98606 77.12171 11484 ft 282 kts 353°
2026-04-27 03:28 28.00575 77.12076 11060 ft 280 kts 353°
2026-04-27 03:29 28.02497 77.11983 10650 ft 278 kts 353°
2026-04-27 03:29 28.04437 77.11890 10231 ft 277 kts 353°
2026-04-27 03:29 28.06360 77.11797 9824 ft 275 kts 353°
2026-04-27 03:29 28.08274 77.11706 9407 ft 274 kts 353°
2026-04-27 03:30 28.10165 77.11614 9058 ft 274 kts 353°
2026-04-27 03:30 28.12060 77.11522 8797 ft 273 kts 353°
2026-04-27 03:30 28.13962 77.11429 8524 ft 272 kts 353°
2026-04-27 03:30 28.15870 77.11337 8249 ft 272 kts 353°
2026-04-27 03:31 28.17764 77.11245 7985 ft 272 kts 354°
2026-04-27 03:31 28.19648 77.11155 7766 ft 269 kts 354°
2026-04-27 03:31 28.21526 77.11321 7721 ft 277 kts 13°
2026-04-27 03:31 28.23214 77.12417 7722 ft 289 kts 39°
2026-04-27 03:32 28.24361 77.14317 7731 ft 298 kts 63°
2026-04-27 03:32 28.25027 77.16534 7736 ft 300 kts 70°
2026-04-27 03:32 28.25598 77.18837 7725 ft 300 kts 71°
2026-04-27 03:32 28.26145 77.21126 7731 ft 301 kts 71°
2026-04-27 03:33 28.26682 77.23390 7728 ft 301 kts 71°
2026-04-27 03:33 28.27229 77.25699 7687 ft 298 kts 71°
2026-04-27 03:33 28.28010 77.27807 7417 ft 291 kts 50°
2026-04-27 03:33 28.29466 77.29322 7129 ft 281 kts 27°
2026-04-27 03:34 28.31184 77.30378 6894 ft 278 kts 22°
2026-04-27 03:34 28.32936 77.31331 6652 ft 277 kts 21°
2026-04-27 03:34 28.34668 77.32249 6402 ft 276 kts 21°
2026-04-27 03:34 28.36419 77.33167 6163 ft 275 kts 21°
2026-04-27 03:35 28.38158 77.34074 5923 ft 274 kts 21°
2026-04-27 03:35 28.39898 77.34978 5686 ft 273 kts 21°
2026-04-27 03:35 28.41621 77.35854 5446 ft 272 kts 19°
2026-04-27 03:35 28.43387 77.36608 5197 ft 271 kts 17°
2026-04-27 03:36 28.45187 77.37249 4940 ft 268 kts
2026-04-27 03:36 28.47012 77.37062 4683 ft 265 kts 338°
2026-04-27 03:36 28.48529 77.35899 4438 ft 263 kts 310°
2026-04-27 03:36 28.49391 77.34081 4196 ft 263 kts 291°
2026-04-27 03:37 28.50066 77.32171 4044 ft 258 kts 288°
2026-04-27 03:37 28.50312 77.30184 3940 ft 254 kts 275°
2026-04-27 03:37 28.50487 77.28181 3716 ft 249 kts 280°
2026-04-27 03:37 28.50820 77.26287 3388 ft 242 kts 285°
2026-04-27 03:38 28.51226 77.24459 3094 ft 236 kts 285°
2026-04-27 03:38 28.51624 77.22684 2811 ft 231 kts 285°
2026-04-27 03:38 28.52002 77.20930 2531 ft 226 kts 284°
2026-04-27 03:38 28.52365 77.19213 2272 ft 219 kts 284°
2026-04-27 03:39 28.52718 77.17548 1994 ft 212 kts 283°
2026-04-27 03:39 28.53057 77.15958 1734 ft 205 kts 283°
2026-04-27 03:39 28.53385 77.14422 1489 ft 197 kts 283°
2026-04-27 03:39 28.53706 77.12918 1217 ft 192 kts 283°
2026-04-27 03:40 28.54016 77.11464 951 ft 188 kts 283°
2026-04-27 03:40 28.54321 77.10053 799 ft 176 kts 283°
2026-04-27 03:40 28.54630 77.08794 800 ft 155 kts 284°
2026-04-27 03:40 28.54874 77.07706 1181 ft 147 kts 275°
2026-04-27 03:41 28.54606 77.06562 1731 ft 163 kts 229°
2026-04-27 03:41 28.53709 77.05687 2328 ft 183 kts 208°
2026-04-27 03:41 28.52413 77.05484 2782 ft 201 kts 162°
2026-04-27 03:41 28.51205 77.06423 2985 ft 227 kts 130°
2026-04-27 03:42 28.50243 77.07877 2975 ft 228 kts 123°
2026-04-27 03:42 28.49380 77.09373 2969 ft 222 kts 121°
2026-04-27 03:42 28.48544 77.10864 2970 ft 223 kts 121°
2026-04-27 03:42 28.47714 77.12347 2969 ft 223 kts 121°
2026-04-27 03:43 28.46887 77.13823 2854 ft 221 kts 121°
2026-04-27 03:43 28.46059 77.15307 2649 ft 222 kts 121°
2026-04-27 03:43 28.45247 77.16775 2577 ft 219 kts 121°
2026-04-27 03:43 28.44432 77.18256 2575 ft 222 kts 121°
2026-04-27 03:44 28.43846 77.19854 2564 ft 220 kts 93°
2026-04-27 03:44 28.44110 77.21536 2569 ft 217 kts 58°
2026-04-27 03:44 28.45152 77.22746 2585 ft 223 kts 30°
2026-04-27 03:44 28.46489 77.23713 2579 ft 226 kts 31°
2026-04-27 03:45 28.47789 77.24669 2567 ft 219 kts 27°
2026-04-27 03:45 28.49219 77.25082 2549 ft 208 kts 352°
2026-04-27 03:45 28.50469 77.24509 2537 ft 187 kts 314°
2026-04-27 03:45 28.51234 77.23363 2563 ft 176 kts 297°
2026-04-27 03:46 28.51681 77.22110 2568 ft 171 kts 289°
2026-04-27 03:46 28.52020 77.20813 2513 ft 170 kts 285°
2026-04-27 03:46 28.52307 77.19511 2299 ft 165 kts 284°
2026-04-27 03:46 28.52563 77.18286 2097 ft 159 kts 283°
2026-04-27 03:47 28.52817 77.17073 1903 ft 153 kts 283°
2026-04-27 03:47 28.53065 77.15911 1720 ft 149 kts 283°
2026-04-27 03:47 28.53307 77.14781 1533 ft 143 kts 283°
2026-04-27 03:47 28.53537 77.13707 1330 ft 140 kts 282°
2026-04-27 03:48 28.53767 77.12624 1168 ft 141 kts 282°
2026-04-27 03:48 28.53994 77.11556 1012 ft 140 kts 283°
2026-04-27 03:48 28.54229 77.10470 852 ft 140 kts 282°
2026-04-27 03:48 28.54443 77.09481 788 ft 96 kts 282°
2026-04-27 03:49 28.54541 77.09008 788 ft 46 kts 282°
2026-04-27 03:49 28.54619 77.08674 788 ft 36 kts 283°
2026-04-27 03:49 28.54706 77.08451 788 ft 29 kts 313°
2026-04-27 03:49 28.54822 77.08309 788 ft 22 kts 312°
2026-04-27 03:50 28.54929 77.08183 788 ft 21 kts 309°
2026-04-27 03:50 28.54972 77.08049 788 ft 16 kts 285°
2026-04-27 03:50 28.55001 77.07930 788 ft 13 kts 287°
2026-04-27 03:50 28.55070 77.07880 788 ft 13 kts 11°
2026-04-27 03:51 28.55159 77.07912 788 ft 12 kts 30°
2026-04-27 03:51 28.55214 77.07980 788 ft 11 kts 52°
2026-04-27 03:51 28.55227 77.08032 788 ft 6 kts 116°
2026-04-27 03:51 28.55196 77.08057 788 ft 5 kts 152°
2026-04-27 03:52 28.55175 77.08071 788 ft 0 kts 150°